This demonstration page uses our WeatherBlox Daily Observations layout. Learn more.

Left ArrowRight Arrow

Hourly Observations for September 8, 2017

Temp ( °F °C ) Dew Point ( °F °C ) Humidity (%) Winds ( mph kmh ) Pressure ( in mb ) Visibility ( mi km ) Precip ( " mm )
12:54 am 00:54 Clear 60 15.6 52 11.1 75 75 Calm 30.03 1017 10 16.0934 0 0
1:54 am 01:54 Clear 59 15 52 11.1 78 78 Calm 30.03 1017 10 16.0934 0 0
2:54 am 02:54 Clear 54 12.2 50 10 87 87 Calm 30.03 1017 10 16.0934 0 0
3:54 am 03:54 Clear 58 14.4 51 10.6 78 78 S 5 7 30.02 1017 10 16.0934 0 0
4:54 am 04:54 Clear 58 14.4 51 10.6 78 78 Calm 30.03 1017 10 16.0934 0 0
5:54 am 05:54 Clear 57 13.9 51 10.6 81 81 Calm 30.03 1017 10 16.0934 0 0
6:54 am 06:54 Clear 54 12.2 50 10 87 87 Calm 30.05 1018 10 16.0934 0 0
7:54 am 07:54 Sunny 56 13.3 52 11.1 87 87 Calm 30.06 1018 10 16.0934 0 0
8:54 am 08:54 Sunny 63 17.2 55 12.8 76 76 Calm 30.07 1018 10 16.0934 0 0
9:54 am 09:54 Sunny 70 21.1 55 12.8 59 59 S 3 6 30.07 1018 10 16.0934 0 0
10:54 am 10:54 Sunny 75 23.9 57 13.9 54 54 SSE 6 9 30.08 1019 10 16.0934 0 0
11:54 am 11:54 Sunny 80 26.7 57 13.9 45 45 VRB 6 9 30.07 1018 10 16.0934 0 0
12:54 pm 12:54 Sunny 84 28.9 54 12.2 36 36 S 6 9 30.07 1018 10 16.0934 0 0
1:54 pm 13:54 Sunny 86 30 55 12.8 35 35 VRB 6 9 30.07 1018 10 16.0934 0 0
2:54 pm 14:54 Sunny 87 30.6 56 13.3 35 35 S 8 13 30.05 1018 10 16.0934 0 0
3:54 pm 15:54 Sunny 88 31.1 57 13.9 35 35 SSE 9 15 30.04 1017 10 16.0934 0 0
4:54 pm 16:54 Sunny 89 31.7 55 12.8 31 31 SSW 10 17 30.03 1017 10 16.0934 0 0
5:54 pm 17:54 Sunny 88 31.1 54 12.2 31 31 S 5 7 30.03 1017 10 16.0934 0 0
6:54 pm 18:54 Sunny 84 28.9 58 14.4 41 41 S 5 7 30.03 1017 10 16.0934 0 0
7:54 pm 19:54 Clear 79 26.1 58 14.4 49 49 SE 3 6 30.03 1017 10 16.0934 0 0
8:54 pm 20:54 Clear 78 25.6 60 15.6 54 54 Calm 30.05 1018 10 16.0934 0 0
9:54 pm 21:54 Clear 73 22.8 59 15 62 62 S 3 6 30.06 1018 10 16.0934 0 0
10:54 pm 22:54 Clear 67 19.4 56 13.3 68 68 S 7 11 30.08 1019 10 16.0934 0 0
11:54 pm 23:54 Clear 67 19.4 54 12.2 63 63 S 5 7 30.09 1019 10 16.0934 0 0

Powered by AerisWeather